Home   Weather   Canterbury   Past weeks

Flag for United Kingdom Past Weather in Canterbury, England, United Kingdom — Yesterday and Last 2 Weeks

Now
61 °F

Cool.


Feels Like: 61 °F
Forecast: 56 / 66 °F
Wind: 10 mph from Southwest

Location: Manston

Current Time: Aug 18, 2017 at 2:08:22 am

Latest Report: Aug 18, 2017 at 1:00 am


Visibility: 9 mi

Pressure: 29.90 "Hg

Humidity: 92%

Dew Point: 58 °F

Location of CanterburyLocation

Past Weather in Canterbury — Graph

°F

Canterbury Temperature Yesterday

Maximum temperature yesterday: 72 °F (at 4:00 pm)
Minimum temperature yesterday: 60 °F (at 4:00 am)
Average temperature yesterday: 65 °F

High & Low Weather Summary for the Past Weeks

 TemperatureHumidityPressure
High72 °F (Aug 4, 1:00 pm)98% (Aug 8, 8:00 am)30.22 "Hg (Aug 8, 8:00 am)
Low51 °F (Aug 6, 6:00 am)42% (Aug 11, 5:00 pm)29.73 "Hg (Aug 3, 5:00 am)
Average62 °F78%30.01 "Hg
* Reported Aug 3 12:00 am — Aug 18 12:00 am, Canterbury. Weather by CustomWeather, © 2017

Note: Actual official high and low records may vary slightly from our data, if they occured in-between our weather recording intervals... More about our weather records

Advertising

Canterbury Weather History for the Previous 24 Hours

Scroll right to see more
 ConditionsComfort  
Time TempWeatherWind HumidityBarometerVisibility
12:00 am
Fri, Aug 18
61 °FCool.10 mph92%29.90 "Hg8 mi
11:00 pm
Thu, Aug 17
62 °FCool.13 mph91%29.90 "Hg10 mi
10:00 pm62 °FCool.10 mph89%29.91 "Hg11 mi
9:00 pm63 °FMild.12 mph84%29.91 "Hg15 mi
8:00 pm65 °FMild.15 mph76%29.91 "Hg14 mi
7:00 pm67 °FMild.20 mph70%29.89 "Hg14 mi
6:00 pm70 °FMild.20 mph62%29.88 "Hg16 mi
5:00 pm71 °FMild.21 mph66%29.88 "Hg13 mi
4:00 pm72 °FMild.22 mph63%29.87 "Hg25 mi
3:00 pm72 °FMild.18 mph70%29.88 "Hg22 mi
2:00 pm71 °FMild.20 mph76%29.88 "Hg14 mi
1:00 pm67 °FMild.16 mph88%29.88 "Hg31 mi
12:00 pm66 °FMild.15 mph92%29.88 "Hg28 mi
11:00 am66 °FMild.15 mph94%29.88 "Hg25 mi
10:00 am65 °FMild.15 mph96%29.87 "Hg17 mi
9:00 am64 °FRain showers. Cloudy.12 mph97%29.87 "Hg16 mi
8:00 am62 °FLight rain. Cloudy.8 mph97%29.89 "Hg19 mi
7:00 am62 °FRain. Cloudy.12 mph97%29.89 "Hg6 mi
6:00 am63 °FLight rain. Cloudy.13 mph90%29.89 "Hg19 mi
5:00 am61 °FCool.8 mph84%29.89 "Hg31 mi
4:00 am60 °FCool.7 mph86%29.92 "Hg31 mi
3:00 am62 °FLots of rain. Overcast.7 mph82%29.95 "Hg11 mi
2:00 am63 °FMild.8 mph78%29.95 "Hg31 mi
Weather by CustomWeather, © 2017

See weather overviewHow to use our weather pages